Needles, CA

8:58 AM PST on December 16, 2017 (GMT -0800)
Needles

Weather History for KEED - April, 2013

Change the Weather History Date:

Tuesday, April 30, 2013

  Actual Average Record
Temperature  
Mean Temperature 90 °F 77 °F  
Max Temperature 102 °F 90 °F 103 °F (1981)
Min Temperature 77 °F 64 °F 43 °F (1915)
Degree Days  
Heating Degree Days 0    
Cooling Degree Days 24    
Growing Degree Days 40 (Base 50)    
Moisture  
Dew Point 20 °F    
Average Humidity 8    
Maximum Humidity 15    
Minimum Humidity 4    
Precipitation  
Precipitation 0.00 in 0.01 in 0.49 in (1980)
Month to date precipitation 0.22  
Year to date precipitation 2.26  
Sea Level Pressure  
Sea Level Pressure 29.51 in    
Wind  
Wind Speed 10 mph (SW)    
Max Wind Speed 21 mph    
Max Gust Speed 32 mph    
Visibility 10 miles    
Events      
T = Trace of Precipitation, MM = Missing Value Source: NWS Daily Summary

Daily Weather History Graph

Daily Weather History Graph

Search for Another Location

Airport or City:

Trip Planner

Search our weather history database for the weather conditions in past years. The results will help you decide how hot, cold, wet, or windy it might be!

Date:

Astronomy

Apr. 30, 2013 Rise Set
Actual Time 5:48 AM PDT 7:23 PM PDT
Civil Twilight 5:21 AM PDT 7:50 PM PDT
Nautical Twilight 4:49 AM PDT 8:22 PM PDT
Astronomical Twilight 4:15 AM PDT 8:56 PM PDT
Moon No Moon Rise 10:24 AM PDT (4/30)
Length of Visible Light 14h 28m
Length of Day
13h 34m
Waning Gibbous, 69% of the Moon is Illuminated
Apr 30
Waning Gibbous
May 2
Last Quarter
May 9
New
May 17
First Quarter
May 24
Full

Hourly Weather History & Observations

Time (PDT) Temp. Dew Point Humidity Pressure Visibility Wind Dir Wind Speed Gust Speed Precip Events Conditions
12:56 AM 87.1 °F 19.9 °F 8% 29.51 in 10.0 mi Variable 4.6 mph - N/A   Clear
1:56 AM 84.9 °F 17.1 °F 8% 29.51 in 10.0 mi WSW 12.7 mph - N/A   Clear
2:56 AM 82.9 °F 19.0 °F 9% 29.51 in 10.0 mi WSW 10.4 mph - N/A   Clear
3:56 AM 79.0 °F 17.1 °F 10% 29.52 in 10.0 mi SW 9.2 mph - N/A   Clear
4:56 AM 79.0 °F 19.0 °F 11% 29.52 in 10.0 mi WSW 9.2 mph - N/A   Clear
5:56 AM 77.0 °F 18.0 °F 11% 29.53 in 10.0 mi West 6.9 mph - N/A   Clear
6:56 AM 81.0 °F 23.0 °F 12% 29.54 in 10.0 mi Calm Calm - N/A   Clear
7:56 AM 82.9 °F 28.9 °F 14% 29.55 in 10.0 mi Calm Calm - N/A   Clear
8:56 AM 88.0 °F 23.0 °F 9% 29.55 in 10.0 mi ESE 6.9 mph - N/A   Clear
9:56 AM 93.0 °F 21.9 °F 8% 29.55 in 10.0 mi SW 13.8 mph - N/A   Clear
10:56 AM 96.1 °F 21.0 °F 7% 29.55 in 10.0 mi WSW 13.8 mph 20.7 mph N/A   Clear
11:56 AM 99.0 °F 19.0 °F 6% 29.53 in 10.0 mi SW 13.8 mph 25.3 mph N/A   Clear
12:56 PM 100.9 °F 17.1 °F 5% 29.51 in 10.0 mi WSW 17.3 mph 31.1 mph N/A   Clear
1:56 PM 100.9 °F 14.0 °F 4% 29.50 in 10.0 mi WSW 12.7 mph 28.8 mph N/A   Clear
2:56 PM 102.0 °F 15.1 °F 4% 29.49 in 10.0 mi WSW 19.6 mph 28.8 mph N/A   Clear
3:56 PM 102.0 °F 17.1 °F 5% 29.47 in 10.0 mi WSW 13.8 mph 19.6 mph N/A   Clear
4:56 PM 100.9 °F 18.0 °F 5% 29.47 in 10.0 mi WSW 9.2 mph 21.9 mph N/A   Clear
5:56 PM 99.0 °F 17.1 °F 5% 29.47 in 10.0 mi SW 16.1 mph 25.3 mph N/A   Clear
6:56 PM 96.1 °F 15.1 °F 5% 29.47 in 10.0 mi SSW 15.0 mph 24.2 mph N/A   Clear
7:56 PM 93.9 °F 23.0 °F 8% 29.47 in 10.0 mi SSW 20.7 mph 32.2 mph N/A   Clear
8:56 PM 91.9 °F 26.1 °F 9% 29.48 in 10.0 mi SW 20.7 mph 27.6 mph N/A   Clear
10:56 PM 87.1 °F 26.1 °F 11% 29.54 in 10.0 mi South 15.0 mph - N/A   Clear
11:56 PM 86.0 °F 33.1 °F 15% 29.56 in 10.0 mi SSW 13.8 mph - N/A   Clear